| time (UTC) | temp F | wind direction | speed knots | gust knots | rain 1hr in | rain 24hr in | rain mn in | humidity % | barometer mb |
| 20260906174122 | 79 | 23 | 2.6 | 4.3 | 0.00 | 0.22 | 0.22 | 65 | 1013.2 |
| 20260906173121 | 79 | 119 | 1.7 | 3.5 | 0.00 | 0.22 | 0.22 | 65 | 1013.4 |
| 20260906172125 | 77 | 63 | 1.7 | 5.2 | 0.00 | 0.22 | 0.22 | 69 | 1013.4 |
| 20260906171121 | 75 | 91 | 2.6 | 5.2 | 0.00 | 0.22 | 0.22 | 73 | 1013.5 |
| 20260906170124 | 75 | 71 | 0.9 | 4.3 | 0.00 | 0.22 | 0.22 | 71 | 1013.5 |
| 20260906165121 | 76 | 104 | 1.7 | 4.3 | 0.00 | 0.22 | 0.22 | 74 | 1013.6 |
| 20260906164122 | 77 | 70 | 2.6 | 4.3 | 0.00 | 0.22 | 0.22 | 71 | 1013.6 |
| 20260906163126 | 76 | 48 | 1.7 | 3.5 | 0.00 | 0.22 | 0.22 | 73 | 1013.6 |
| 20260906162124 | 75 | 4 | 1.7 | 4.3 | 0.00 | 0.22 | 0.22 | 74 | 1013.7 |
| 20260906161123 | 74 | 9 | 1.7 | 4.3 | 0.00 | 0.22 | 0.22 | 76 | 1013.6 |
| 20260906160121 | 74 | 327 | 1.7 | 4.3 | 0.00 | 0.22 | 0.22 | 78 | 1013.6 |
| 20260906155123 | 74 | 36 | 2.6 | 4.3 | 0.00 | 0.22 | 0.22 | 75 | 1013.7 |
| 20260906154128 | 74 | 92 | 2.6 | 4.3 | 0.00 | 0.22 | 0.22 | 77 | 1013.7 |
| 20260906153124 | 74 | 60 | 2.6 | 3.5 | 0.00 | 0.22 | 0.22 | 78 | 1013.7 |
| 20260906152124 | 74 | 81 | 2.6 | 4.3 | 0.00 | 0.22 | 0.22 | 77 | 1013.8 |
| 20260906151122 | 75 | 51 | 2.6 | 5.2 | 0.00 | 0.22 | 0.22 | 78 | 1013.6 |
| 20260906150121 | 74 | 76 | 1.7 | 4.3 | 0.00 | 0.22 | 0.22 | 79 | 1013.4 |
| 20260906145143 | 72 | 44 | 0.9 | 2.6 | 0.00 | 0.22 | 0.22 | 83 | 1013.4 |
| 20260906144122 | 72 | 45 | 2.6 | 5.2 | 0.00 | 0.22 | 0.22 | 83 | 1013.5 |
| 20260906143124 | 73 | 87 | 2.6 | 3.5 | 0.00 | 0.22 | 0.22 | 81 | 1013.5 |
| 20260906142125 | 73 | 37 | 2.6 | 4.3 | 0.00 | 0.22 | 0.22 | 82 | 1013.2 |
| 20260906141123 | 72 | 31 | 2.6 | 4.3 | 0.00 | 0.22 | 0.22 | 84 | 1013.2 |
| 20260906140121 | 74 | 299 | 1.7 | 3.5 | 0.00 | 0.22 | 0.22 | 82 | 1013.2 |
| 20260906135147 | 71 | 69 | 1.7 | 3.5 | 0.00 | 0.22 | 0.22 | 86 | 1013.4 |
| 20260906134121 | 71 | 76 | 1.7 | 3.5 | 0.00 | 0.22 | 0.22 | 88 | 1013.4 |
| 20260906133125 | 70 | 358 | 1.7 | 4.3 | 0.00 | 0.22 | 0.22 | 91 | 1013.2 |
| 20260906132121 | 68 | 108 | 2.6 | 3.5 | 0.00 | 0.22 | 0.22 | 93 | 1013.2 |
| 20260906131121 | 68 | 43 | 1.7 | 3.5 | 0.00 | 0.22 | 0.22 | 95 | 1013.4 |
| 20260906130121 | 69 | 85 | 2.6 | 5.2 | 0.00 | 0.22 | 0.22 | 91 | 1013.4 |
| 20260906125121 | 70 | 70 | 1.7 | 3.5 | 0.00 | 0.22 | 0.22 | 88 | 1013.2 |
| 20260906124121 | 69 | 3 | 1.7 | 3.5 | 0.00 | 0.22 | 0.22 | 90 | 1013.1 |
| 20260906123123 | 71 | 102 | 1.7 | 3.5 | 0.00 | 0.22 | 0.22 | 84 | 1012.9 |
| 20260906122125 | 69 | 107 | 1.7 | 2.6 | 0.00 | 0.22 | 0.22 | 85 | 1012.9 |
| 20260906121122 | 68 | 81 | 1.7 | 2.6 | 0.00 | 0.22 | 0.22 | 90 | 1012.8 |
| 20260906120122 | 67 | 85 | 0.9 | 2.6 | 0.00 | 0.22 | 0.22 | 93 | 1012.8 |
| 20260906115121 | 66 | 65 | 0.0 | 2.6 | 0.00 | 0.22 | 0.22 | 95 | 1012.7 |
| 20260906114122 | 66 | 90 | 0.0 | 0.9 | 0.00 | 0.22 | 0.22 | 98 | 1012.5 |
| 20260906113125 | 65 | 113 | 0.0 | 0.0 | 0.00 | 0.22 | 0.22 | 99 | 1012.2 |
| 20260906112121 | 65 | 90 | 0.0 | 0.0 | 0.00 | 0.22 | 0.22 | 99 | 1012.0 |
| 20260906111126 | 63 | 23 | 0.0 | 0.0 | 0.00 | 0.22 | 0.22 | 99 | 1012.1 |
| 20260906110128 | 62 | 270 | 0.0 | 0.0 | 0.00 | 0.22 | 0.22 | 99 | 1012.1 |
| 20260906105122 | 61 | 360 | 0.0 | 0.0 | 0.00 | 0.22 | 0.22 | 99 | 1011.9 |
| 20260906104124 | 61 | 105 | 0.0 | 2.6 | 0.00 | 0.22 | 0.22 | 99 | 1011.7 |
| 20260906103146 | 62 | 131 | 0.0 | 1.7 | 0.00 | 0.22 | 0.22 | 99 | 1011.7 |
| 20260906102126 | 62 | 46 | 0.0 | 1.7 | 0.00 | 0.22 | 0.22 | 99 | 1011.6 |
| 20260906101122 | 62 | 23 | 0.9 | 2.6 | 0.00 | 0.22 | 0.22 | 99 | 1011.5 |
| 20260906100121 | 62 | 23 | 0.0 | 2.6 | 0.00 | 0.22 | 0.22 | 99 | 1011.5 |
| 20260906095125 | 62 | 23 | 0.0 | 1.7 | 0.00 | 0.22 | 0.22 | 99 | 1011.4 |
| 20260906094143 | 62 | 357 | 0.0 | 2.6 | 0.00 | 0.22 | 0.22 | 99 | 1011.2 |
| 20260906093121 | 62 | 48 | 0.0 | 1.7 | 0.00 | 0.22 | 0.22 | 99 | 1010.9 |
| 20260906092122 | 63 | 88 | 0.9 | 2.6 | 0.00 | 0.22 | 0.22 | 99 | 1010.9 |
| 20260906091121 | 63 | 23 | 0.0 | 0.0 | 0.00 | 0.22 | 0.22 | 99 | 1010.8 |
| 20260906090121 | 63 | 59 | 0.0 | 2.6 | 0.00 | 0.22 | 0.22 | 99 | 1010.8 |
| 20260906085143 | 64 | 37 | 0.9 | 2.6 | 0.00 | 0.22 | 0.22 | 99 | 1010.7 |
| 20260906084125 | 64 | 48 | 0.9 | 2.6 | 0.00 | 0.22 | 0.22 | 99 | 1010.7 |
| 20260906083121 | 64 | 4 | 0.0 | 1.7 | 0.00 | 0.22 | 0.22 | 99 | 1010.5 |
| 20260906082121 | 64 | 3 | 0.0 | 0.9 | 0.00 | 0.22 | 0.22 | 99 | 1010.2 |
| 20260906081121 | 64 | 86 | 0.9 | 2.6 | 0.00 | 0.22 | 0.22 | 99 | 1010.4 |
| 20260906080121 | 65 | 105 | 0.9 | 2.6 | 0.00 | 0.22 | 0.22 | 99 | 1010.4 |
| 20260906075123 | 65 | 56 | 0.9 | 3.5 | 0.00 | 0.22 | 0.22 | 99 | 1010.4 |
| 20260906074123 | 65 | 92 | 0.9 | 2.6 | 0.00 | 0.22 | 0.22 | 99 | 1010.4 |
| 20260906073143 | 65 | 87 | 0.9 | 2.6 | 0.00 | 0.22 | 0.22 | 99 | 1010.6 |
| 20260906072122 | 66 | 105 | 0.9 | 3.5 | 0.00 | 0.22 | 0.22 | 99 | 1010.5 |
| 20260906071121 | 65 | 62 | 0.9 | 2.6 | 0.00 | 0.22 | 0.22 | 99 | 1010.2 |
| 20260906070122 | 65 | 59 | 0.9 | 3.5 | 0.00 | 0.22 | 0.22 | 99 | 1010.2 |
| 20260906065122 | 65 | 87 | 0.9 | 1.7 | 0.03 | 0.22 | 0.22 | 99 | 1010.2 |
| 20260906064123 | 64 | 113 | 0.0 | 0.0 | 0.22 | 0.22 | 0.22 | 99 | 1010.2 |
| 20260906063122 | 65 | 337 | 0.0 | 1.7 | 0.22 | 0.22 | 0.22 | 99 | 1010.4 |
| 20260906062122 | 65 | 9 | 0.9 | 2.6 | 0.22 | 0.22 | 0.22 | 99 | 1010.6 |
| 20260906061122 | 65 | 94 | 0.9 | 3.5 | 0.22 | 0.22 | 0.22 | 99 | 1010.6 |
| 20260906060122 | 66 | 138 | 1.7 | 3.5 | 0.22 | 0.22 | 0.22 | 99 | 1010.6 |
| 20260906055122 | 67 | 150 | 1.7 | 5.2 | 0.19 | 0.19 | 0.19 | 99 | 1010.9 |
| 20260906054122 | 69 | 96 | 2.6 | 5.2 | 0.00 | 0.00 | 0.00 | 98 | 1010.6 |
| 20260906053122 | 70 | 114 | 2.6 | 4.3 | 0.00 | 0.00 | 0.00 | 97 | 1010.5 |
| 20260906052123 | 70 | 128 | 0.9 | 2.6 | 0.00 | 0.00 | 0.00 | 96 | 1010.5 |
| 20260906051144 | 70 | 212 | 0.9 | 1.7 | 0.00 | 0.00 | 0.00 | 96 | 1010.6 |
| 20260906050121 | 69 | 223 | 0.9 | 1.7 | 0.00 | 0.00 | 0.00 | 97 | 1010.6 |
| 20260906045142 | 69 | 114 | 1.7 | 4.3 | 0.00 | 0.00 | 0.00 | 97 | 1010.6 |
| 20260906044121 | 69 | 129 | 1.7 | 3.5 | 0.00 | 0.00 | 0.00 | 97 | 1010.6 |
| 20260906043121 | 69 | 108 | 0.9 | 2.6 | 0.00 | 0.00 | 0.00 | 96 | 1010.6 |
| 20260906042143 | 68 | 98 | 0.0 | 1.7 | 0.00 | 0.00 | 0.00 | 95 | 1010.7 |
| 20260906041123 | 69 | 96 | 0.9 | 1.7 | 0.00 | 0.00 | 0.00 | 95 | 1010.6 |
| 20260906040123 | 69 | 94 | 0.9 | 1.7 | 0.00 | 0.00 | 0.00 | 94 | 1010.6 |
| 20260906035123 | 69 | 102 | 0.9 | 1.7 | 0.00 | 0.00 | 0.00 | 90 | 1010.6 |
| 20260906034121 | 69 | 55 | 0.0 | 1.7 | 0.00 | 0.00 | 0.00 | 90 | 1010.4 |
| 20260906033122 | 69 | 78 | 0.9 | 1.7 | 0.00 | 0.00 | 0.00 | 90 | 1010.4 |
| 20260906032122 | 70 | 112 | 0.9 | 2.6 | 0.00 | 0.00 | 0.00 | 89 | 1010.2 |
| 20260906031123 | 70 | 124 | 1.7 | 2.6 | 0.00 | 0.00 | 0.00 | 88 | 1010.2 |
| 20260906030124 | 70 | 96 | 0.9 | 1.7 | 0.00 | 0.00 | 0.00 | 86 | 1010.2 |
| 20260906025145 | 70 | 109 | 0.0 | 1.7 | 0.00 | 0.00 | 0.00 | 85 | 1010.2 |
| 20260906024124 | 71 | 89 | 0.9 | 1.7 | 0.00 | 0.00 | 0.00 | 83 | 1010.2 |
| 20260906023122 | 71 | 294 | 0.9 | 1.7 | 0.00 | 0.00 | 0.00 | 82 | 1010.1 |
| 20260906022122 | 71 | 33 | 1.7 | 3.5 | 0.00 | 0.00 | 0.00 | 80 | 1010.2 |
| 20260906021122 | 71 | 92 | 1.7 | 3.5 | 0.00 | 0.00 | 0.00 | 79 | 1010.0 |
| 20260906020122 | 71 | 54 | 0.9 | 2.6 | 0.00 | 0.00 | 0.00 | 78 | 1010.0 |
| 20260906015143 | 71 | 61 | 1.7 | 2.6 | 0.00 | 0.00 | 0.00 | 77 | 1009.9 |
| 20260906014142 | 72 | 113 | 1.7 | 3.5 | 0.00 | 0.00 | 0.00 | 76 | 1009.8 |
| 20260906013142 | 72 | 43 | 1.7 | 3.5 | 0.00 | 0.00 | 0.00 | 75 | 1009.8 |
| 20260906012127 | 73 | 71 | 1.7 | 3.5 | 0.00 | 0.00 | 0.00 | 75 | 1009.6 |
| 20260906011121 | 73 | 14 | 1.7 | 3.5 | 0.00 | 0.00 | 0.00 | 75 | 1009.5 |
| 20260906010124 | 73 | 344 | 1.7 | 4.3 | 0.00 | 0.00 | 0.00 | 75 | 1009.5 |
| 20260906005122 | 74 | 188 | 0.9 | 3.5 | 0.00 | 0.00 | 0.00 | 75 | 1009.5 |
| 20260906004121 | 74 | 298 | 0.9 | 3.5 | 0.00 | 0.00 | 0.00 | 75 | 1009.4 |
| 20260906003121 | 74 | 6 | 0.9 | 3.5 | 0.00 | 0.00 | 0.00 | 74 | 1009.2 |
| 20260906002121 | 74 | 74 | 1.7 | 2.6 | 0.00 | 0.00 | 0.00 | 73 | 1009.0 |
| 20260906001121 | 74 | 81 | 1.7 | 4.3 | 0.00 | 0.00 | 0.00 | 73 | 1009.0 |
| 20260906000142 | 75 | 93 | 1.7 | 3.5 | 0.00 | 0.00 | 0.00 | 71 | 1009.0 |
| 20260905235121 | 75 | 109 | 2.6 | 3.5 | 0.00 | 0.00 | 0.00 | 70 | 1008.8 |
| 20260905234123 | 76 | 87 | 1.7 | 3.5 | 0.00 | 0.00 | 0.00 | 69 | 1008.8 |
| 20260905233121 | 77 | 111 | 1.7 | 3.5 | 0.00 | 0.00 | 0.00 | 68 | 1008.7 |
| 20260905232124 | 77 | 0 | 2.6 | 6.1 | 0.00 | 0.00 | 0.00 | 66 | 1008.7 |
| 20260905231142 | 77 | 6 | 1.7 | 4.3 | 0.00 | 0.00 | 0.00 | 64 | 1008.5 |
| 20260905230127 | 78 | 357 | 1.7 | 4.3 | 0.00 | 0.00 | 0.00 | 64 | 1008.5 |
| 20260905225125 | 78 | 322 | 2.6 | 6.1 | 0.00 | 0.00 | 0.00 | 62 | 1008.4 |
| 20260905224122 | 79 | 3 | 2.6 | 6.1 | 0.00 | 0.00 | 0.00 | 61 | 1008.4 |
| 20260905223122 | 79 | 283 | 3.5 | 6.1 | 0.00 | 0.00 | 0.00 | 60 | 1008.4 |
| 20260905222143 | 79 | 309 | 3.5 | 5.2 | 0.00 | 0.00 | 0.00 | 60 | 1008.2 |
| 20260905221122 | 79 | 343 | 2.6 | 5.2 | 0.00 | 0.00 | 0.00 | 59 | 1008.1 |
| 20260905220121 | 79 | 354 | 3.5 | 7.8 | 0.00 | 0.00 | 0.00 | 59 | 1008.1 |
| 20260905215121 | 81 | 2 | 2.6 | 5.2 | 0.00 | 0.00 | 0.00 | 58 | 1008.0 |
| 20260905214121 | 82 | 312 | 2.6 | 4.3 | 0.00 | 0.00 | 0.00 | 56 | 1008.1 |
| 20260905213121 | 82 | 284 | 3.5 | 5.2 | 0.00 | 0.00 | 0.00 | 56 | 1008.0 |
| 20260905212121 | 82 | 281 | 2.6 | 6.1 | 0.00 | 0.00 | 0.00 | 55 | 1007.9 |
| 20260905211121 | 83 | 330 | 3.5 | 5.2 | 0.00 | 0.00 | 0.00 | 55 | 1008.0 |
| 20260905210121 | 84 | 314 | 3.5 | 6.1 | 0.00 | 0.00 | 0.00 | 54 | 1008.0 |
| 20260905205142 | 84 | 311 | 2.6 | 4.3 | 0.00 | 0.00 | 0.00 | 53 | 1008.0 |
| 20260905204121 | 84 | 252 | 2.6 | 6.1 | 0.00 | 0.00 | 0.00 | 54 | 1007.9 |
| 20260905203142 | 82 | 295 | 2.6 | 4.3 | 0.00 | 0.00 | 0.00 | 56 | 1007.8 |
| 20260905202121 | 84 | 315 | 2.6 | 5.2 | 0.00 | 0.00 | 0.00 | 55 | 1007.8 |
| 20260905201121 | 84 | 312 | 2.6 | 4.3 | 0.00 | 0.00 | 0.00 | 54 | 1007.9 |
| 20260905200121 | 86 | 321 | 3.5 | 5.2 | 0.00 | 0.00 | 0.00 | 54 | 1007.9 |
| 20260905195121 | 85 | 281 | 3.5 | 7.0 | 0.00 | 0.00 | 0.00 | 53 | 1007.9 |
| 20260905194121 | 85 | 4 | 3.5 | 6.1 | 0.00 | 0.00 | 0.00 | 53 | 1008.0 |
| 20260905193122 | 85 | 297 | 2.6 | 6.1 | 0.00 | 0.00 | 0.00 | 51 | 1008.0 |
| 20260905192142 | 85 | 90 | 2.6 | 4.3 | 0.00 | 0.00 | 0.00 | 55 | 1008.1 |
| 20260905191121 | 86 | 330 | 1.7 | 6.1 | 0.00 | 0.00 | 0.00 | 53 | 1008.2 |
| 20260905190123 | 85 | 297 | 2.6 | 4.3 | 0.00 | 0.00 | 0.00 | 54 | 1008.2 |
| 20260905185122 | 84 | 49 | 2.6 | 5.2 | 0.00 | 0.00 | 0.00 | 56 | 1008.2 |
| 20260905184143 | 82 | 11 | 1.7 | 4.3 | 0.00 | 0.00 | 0.00 | 57 | 1008.2 |
| 20260905183122 | 81 | 62 | 1.7 | 3.5 | 0.00 | 0.00 | 0.00 | 58 | 1008.4 |
| 20260905182123 | 83 | 3 | 2.6 | 4.3 | 0.00 | 0.00 | 0.00 | 58 | 1008.5 |
| 20260905181143 | 82 | 313 | 2.6 | 5.2 | 0.00 | 0.00 | 0.00 | 59 | 1008.5 |
| 20260905180142 | 82 | 341 | 3.5 | 7.0 | 0.00 | 0.00 | 0.00 | 60 | 1008.5 |
| 20260905175144 | 82 | 334 | 1.7 | 4.3 | 0.00 | 0.00 | 0.00 | 60 | 1008.5 |